QPF
0.04 0.04 0.04 0.04 0.05 0.05 0.05 0.04 0.05 0.04 0.04 0.04 0.03 0.03 0.05 0.05 0.05 0.04 0.04 0.05 0.04 0.03 0.03 0.03 0.04 0.07 0.06 0.05 0.07 0.07 0.07 0.09 0.08 0.05 0.03 0.02 0.02 0.02 0.01 0.01 0.02 0.02 0.02
0.04 0.04 0.04 0.05 0.05 0.04 0.04 0.05 0.04 0.03 0.03 0.02 0.02 0.02 0.04 0.04 0.05 0.05 0.05 0.07 0.06 0.05 0.04 0.04 0.06 0.06 0.06 0.05 0.05 0.05 0.05 0.06 0.07 0.06 0.05 0.02 0.01 0.01 0.01 0.01 0.02 0.02 0.01
0.04 0.04 0.04 0.05 0.03 0.03 0.04 0.05 0.04 0.03 0.04 0.02 0.02 0.02 0.03 0.05 0.05 0.05 0.07 0.09 0.09 0.07 0.07 0.06 0.06 0.05 0.07 0.06 0.04 0.03 0.03 0.04 0.04 0.03 0.04 0.04 0.03 0.02 0.02 0.02 0.02 0.02 0.01
0.04 0.04 0.04 0.05 0.06 0.06 0.07 0.08 0.07 0.04 0.04 0.03 0.03 0.03 0.03 0.04 0.04 0.05 0.06 0.08 0.08 0.06 0.06 0.05 0.06 0.05 0.06 0.06 0.04 0.03 0.03 0.03 0.03 0.03 0.02 0.03 0.03 0.03 0.03 0.03 0.03 0.02 0.01
0.02 0.02 0.03 0.04 0.06 0.08 0.07 0.08 0.08 0.06 0.05 0.04 0.03 0.03 0.03 0.03 0.03 0.03 0.03 0.05 0.07 0.07 0.07 0.06 0.06 0.07 0.07 0.05 0.03 0.01 0.02 0.02 0.03 0.03 0.02 0.02 0.03 0.03 0.02 0.02 0.02 0.01 0.01
0.02 0.01 0.02 0.05 0.08 0.05 0.05 0.05 0.05 0.05 0.05 0.04 0.03 0.03 0.03 0.02 0.03 0.03 0.03 0.03 0.03 0.06 0.07 0.08 0.07 0.08 0.07 0.05 0.03 0.02 0.01 0.02 0.02 0.02 0.01 0.02 0.03 0.03 0.02 0.02 0.01 0.01 0.01
0.03 0.02 0.03 0.08 0.08 0.05 0.04 0.04 0.04 0.04 0.05 0.05 0.05 0.05 0.03 0.03 0.03 0.02 0.02 0.02 0.01 0.02 0.04 0.06 0.06 0.05 0.05 0.05 0.05 0.03 0.02 0.02 0.02 0.02 0.01 0.02 0.03 0.02 0.03 0.02 0.02 0.01 0.00
0.03 0.03 0.05 0.10 0.15 0.14 0.06 0.04 0.03 0.03 0.04 0.04 0.05 0.04 0.04 0.03 0.03 0.01 0.01 0.02 0.02 0.02 0.03 0.04 0.03 0.03 0.03 0.03 0.03 0.03 0.02 0.01 0.01 0.01 0.01 0.01 0.02 0.01 0.02 0.02 0.01 0.01 0.01
0.05 0.05 0.04 0.05 0.07 0.08 0.06 0.03 0.03 0.04 0.03 0.03 0.03 0.02 0.01 0.01 0.02 0.01 0.01 0.02 0.03 0.02 0.02 0.02 0.02 0.02 0.03 0.04 0.03 0.02 0.01 0.01 0.03 0.02 0.02 0.02 0.02 0.02 0.02 0.01 0.01 0.01 0.01
0.05 0.05 0.04 0.03 0.04 0.05 0.04 0.03 0.03 0.03 0.02 0.02 0.02 0.01 0.01 0.01 0.02 0.02 0.02 0.02 0.02 0.02 0.02 0.02 0.02 0.03 0.03 0.03 0.02 0.01 0.01 0.02 0.04 0.03 0.03 0.03 0.02 0.02 0.02 0.02 0.01 0.01 0.01
0.04 0.03 0.03 0.03 0.03 0.06 0.06 0.04 0.04 0.03 0.02 0.03 0.02 0.02 0.02 0.01 0.01 0.02 0.02 0.01 0.01 0.01 0.03 0.03 0.04 0.04 0.03 0.03 0.02 0.01 0.01 0.03 0.04 0.04 0.04 0.04 0.03 0.02 0.02 0.02 0.02 0.01 0.01
0.04 0.04 0.05 0.06 0.05 0.04 0.05 0.05 0.05 0.03 0.02 0.03 0.03 0.02 0.01 0.01 0.01 0.01 0.01 0.01 0.01 0.01 0.01 0.03 0.04 0.05 0.04 0.03 0.03 0.02 0.02 0.02 0.03 0.05 0.06 0.06 0.05 0.03 0.01 0.01 0.01 0.01 0.01
0.05 0.04 0.05 0.06 0.06 0.04 0.04 0.05 0.05 0.04 0.02 0.02 0.02 0.02 0.01 0.01 0.01 0.02 0.02 0.02 0.02 0.02 0.02 0.02 0.04 0.05 0.04 0.04 0.03 0.03 0.02 0.01 0.01 0.01 0.02 0.02 0.04 0.03 0.01 0.01 0.01 0.01 0.01
0.05 0.05 0.05 0.06 0.06 0.05 0.04 0.04 0.04 0.03 0.02 0.02 0.01 0.01 0.02 0.01 0.01 0.02 0.02 0.02 0.03 0.03 0.02 0.03 0.04 0.06 0.04 0.02 0.03 0.03 0.01 0.01 0.00 0.00 0.01 0.01 0.02 0.02 0.01 0.01 0.01 0.01 0.01
0.07 0.07 0.07 0.06 0.05 0.05 0.04 0.04 0.04 0.03 0.03 0.02 0.01 0.01 0.01 0.01 0.02 0.03 0.04 0.03 0.04 0.03 0.03 0.02 0.03 0.04 0.04 0.02 0.02 0.02 0.02 0.01 0.01 0.00 0.01 0.01 0.02 0.02 0.02 0.02 0.03 0.02 0.02
0.10 0.11 0.10 0.08 0.07 0.06 0.06 0.05 0.04 0.03 0.03 0.03 0.02 0.02 0.02 0.03 0.04 0.03 0.03 0.04 0.04 0.04 0.03 0.02 0.03 0.04 0.04 0.04 0.04 0.03 0.02 0.02 0.02 0.01 0.01 0.01 0.01 0.01 0.01 0.02 0.03 0.02 0.02
0.09 0.11 0.12 0.09 0.07 0.06 0.06 0.06 0.04 0.04 0.03 0.03 0.03 0.03 0.02 0.03 0.02 0.02 0.03 0.05 0.05 0.04 0.02 0.02 0.03 0.04 0.05 0.05 0.05 0.04 0.02 0.02 0.03 0.03 0.02 0.02 0.02 0.01 0.02 0.03 0.02 0.01 0.02
0.09 0.10 0.09 0.08 0.06 0.05 0.04 0.05 0.04 0.04 0.04 0.02 0.02 0.03 0.02 0.01 0.01 0.02 0.04 0.05 0.04 0.03 0.01 0.01 0.02 0.02 0.05 0.05 0.04 0.03 0.02 0.02 0.03 0.04 0.04 0.03 0.03 0.02 0.02 0.02 0.03 0.02 0.02
0.07 0.10 0.08 0.06 0.05 0.05 0.04 0.05 0.04 0.03 0.03 0.02 0.02 0.03 0.03 0.02 0.01 0.02 0.02 0.03 0.04 0.04 0.02 0.02 0.01 0.01 0.03 0.06 0.03 0.02 0.01 0.01 0.01 0.02 0.03 0.03 0.03 0.03 0.02 0.01 0.02 0.03 0.04
0.05 0.06 0.06 0.06 0.05 0.05 0.05 0.05 0.04 0.03 0.03 0.02 0.01 0.01 0.02 0.02 0.01 0.01 0.02 0.04 0.04 0.04 0.03 0.02 0.01 0.01 0.02 0.04 0.05 0.02 0.01 0.01 0.01 0.01 0.01 0.01 0.02 0.02 0.02 0.02 0.02 0.02 0.03
0.04 0.05 0.05 0.05 0.05 0.05 0.06 0.06 0.05 0.04 0.03 0.02 0.02 0.02 0.01 0.01 0.02 0.02 0.02 0.03 0.03 0.03 0.03 0.03 0.02 0.02 0.02 0.02 0.03 0.04 0.02 0.01 0.01 0.01 0.01 0.01 0.01 0.01 0.01 0.02 0.02 0.02 0.03
0.03 0.03 0.04 0.04 0.04 0.06 0.07 0.07 0.07 0.05 0.05 0.04 0.02 0.03 0.03 0.02 0.02 0.02 0.02 0.02 0.02 0.03 0.03 0.04 0.03 0.03 0.03 0.03 0.03 0.03 0.03 0.02 0.01 0.01 0.01 0.01 0.01 0.01 0.01 0.02 0.02 0.03 0.03
0.03 0.03 0.03 0.03 0.04 0.05 0.06 0.08 0.11 0.09 0.07 0.06 0.04 0.03 0.03 0.02 0.01 0.01 0.01 0.02 0.02 0.02 0.02 0.02 0.02 0.02 0.02 0.02 0.03 0.03 0.03 0.02 0.02 0.02 0.01 0.01 0.01 0.01 0.01 0.02 0.02 0.02 0.03
0.04 0.04 0.04 0.03 0.03 0.04 0.06 0.07 0.11 0.13 0.11 0.09 0.06 0.04 0.04 0.02 0.01 0.01 0.01 0.01 0.02 0.01 0.01 0.01 0.02 0.02 0.02 0.02 0.02 0.02 0.03 0.03 0.03 0.03 0.02 0.02 0.02 0.02 0.02 0.02 0.03 0.03 0.03
0.04 0.04 0.05 0.04 0.03 0.03 0.04 0.05 0.07 0.10 0.11 0.09 0.07 0.06 0.05 0.04 0.03 0.03 0.02 0.01 0.01 0.02 0.01 0.01 0.01 0.01 0.01 0.01 0.01 0.02 0.02 0.02 0.03 0.03 0.04 0.04 0.03 0.03 0.02 0.02 0.03 0.04 0.04
0.06 0.06 0.05 0.05 0.04 0.04 0.04 0.05 0.06 0.08 0.10 0.09 0.07 0.06 0.05 0.05 0.04 0.03 0.03 0.02 0.02 0.02 0.02 0.02 0.02 0.01 0.01 0.01 0.01 0.02 0.02 0.02 0.02 0.03 0.04 0.03 0.03 0.02 0.02 0.02 0.03 0.03 0.04
MSLP
1017.39 1016.83 1016.27 1015.71 1015.11 1014.49 1013.84 1013.20 1012.58 1012.01 1011.51 1011.08 1010.69 1010.33 1009.96 1009.56 1009.12 1008.66 1008.20 1007.78 1007.45 1007.26 1007.23 1007.38 1007.70 1008.16 1008.73 1009.37 1010.02 1010.65 1011.25 1011.79 1012.29 1012.75 1013.19 1013.62 1014.04 1014.48 1014.91 1015.36 1015.80 1016.25 1016.69
1017.13 1016.51 1015.88 1015.24 1014.56 1013.85 1013.12 1012.40 1011.73 1011.11 1010.58 1010.13 1009.74 1009.39 1009.05 1008.68 1008.28 1007.86 1007.42 1007.01 1006.67 1006.45 1006.38 1006.47 1006.74 1007.15 1007.69 1008.31 1008.98 1009.65 1010.31 1010.93 1011.52 1012.06 1012.59 1013.09 1013.58 1014.07 1014.56 1015.04 1015.52 1016.00 1016.47
1016.91 1016.24 1015.55 1014.83 1014.06 1013.25 1012.42 1011.62 1010.86 1010.18 1009.59 1009.11 1008.71 1008.36 1008.04 1007.72 1007.37 1006.99 1006.60 1006.22 1005.90 1005.67 1005.57 1005.63 1005.84 1006.21 1006.71 1007.31 1007.97 1008.66 1009.36 1010.04 1010.70 1011.33 1011.93 1012.51 1013.07 1013.63 1014.17 1014.71 1015.24 1015.76 1016.27
1016.76 1016.06 1015.31 1014.50 1013.62 1012.70 1011.76 1010.84 1009.98 1009.21 1008.55 1008.02 1007.59 1007.25 1006.95 1006.67 1006.38 1006.06 1005.73 1005.40 1005.11 1004.90 1004.79 1004.83 1005.01 1005.33 1005.79 1006.36 1007.01 1007.70 1008.42 1009.14 1009.84 1010.53 1011.19 1011.84 1012.47 1013.09 1013.69 1014.29 1014.87 1015.43 1015.98
1016.71 1015.96 1015.14 1014.23 1013.24 1012.19 1011.12 1010.07 1009.09 1008.21 1007.48 1006.88 1006.42 1006.07 1005.79 1005.54 1005.30 1005.05 1004.79 1004.53 1004.30 1004.12 1004.03 1004.06 1004.22 1004.52 1004.95 1005.48 1006.11 1006.79 1007.50 1008.23 1008.96 1009.68 1010.39 1011.08 1011.76 1012.43 1013.09 1013.74 1014.37 1014.98 1015.56
1016.74 1015.94 1015.03 1014.02 1012.91 1011.72 1010.51 1009.32 1008.21 1007.23 1006.39 1005.72 1005.22 1004.84 1004.57 1004.35 1004.16 1003.97 1003.79 1003.60 1003.43 1003.31 1003.26 1003.31 1003.48 1003.76 1004.17 1004.68 1005.28 1005.94 1006.64 1007.36 1008.09 1008.82 1009.54 1010.26 1010.97 1011.68 1012.38 1013.07 1013.74 1014.38 1014.99
1016.83 1015.98 1014.99 1013.87 1012.63 1011.31 1009.96 1008.63 1007.40 1006.30 1005.36 1004.61 1004.05 1003.64 1003.34 1003.14 1002.98 1002.84 1002.72 1002.60 1002.51 1002.45 1002.46 1002.56 1002.75 1003.05 1003.46 1003.96 1004.54 1005.18 1005.85 1006.56 1007.27 1007.99 1008.71 1009.43 1010.16 1010.88 1011.60 1012.32 1013.01 1013.68 1014.31
1016.98 1016.07 1014.99 1013.78 1012.43 1010.99 1009.52 1008.09 1006.74 1005.53 1004.49 1003.65 1003.01 1002.54 1002.21 1001.98 1001.83 1001.72 1001.64 1001.58 1001.55 1001.57 1001.65 1001.80 1002.04 1002.38 1002.81 1003.32 1003.89 1004.52 1005.18 1005.87 1006.56 1007.26 1007.96 1008.68 1009.40 1010.12 1010.85 1011.57 1012.28 1012.96 1013.59
1017.16 1016.20 1015.08 1013.79 1012.36 1010.85 1009.30 1007.77 1006.33 1005.03 1003.91 1002.97 1002.24 1001.68 1001.28 1001.00 1000.81 1000.69 1000.62 1000.59 1000.62 1000.70 1000.84 1001.06 1001.37 1001.76 1002.23 1002.76 1003.35 1003.98 1004.64 1005.30 1005.98 1006.66 1007.35 1008.04 1008.75 1009.46 1010.18 1010.90 1011.60 1012.28 1012.92
1017.38 1016.40 1015.25 1013.94 1012.49 1010.94 1009.35 1007.79 1006.29 1004.93 1003.72 1002.69 1001.85 1001.18 1000.67 1000.30 1000.03 999.86 999.76 999.73 999.78 999.90 1000.10 1000.38 1000.75 1001.20 1001.72 1002.29 1002.91 1003.55 1004.21 1004.87 1005.54 1006.20 1006.87 1007.55 1008.23 1008.93 1009.64 1010.34 1011.04 1011.71 1012.33
1017.64 1016.67 1015.55 1014.26 1012.84 1011.32 1009.75 1008.19 1006.68 1005.27 1003.99 1002.87 1001.92 1001.12 1000.48 999.98 999.59 999.32 999.16 999.09 999.13 999.26 999.49 999.82 1000.24 1000.74 1001.30 1001.91 1002.55 1003.21 1003.88 1004.54 1005.20 1005.85 1006.51 1007.17 1007.84 1008.52 1009.21 1009.90 1010.58 1011.23 1011.85
1017.93 1017.02 1015.96 1014.75 1013.41 1011.97 1010.48 1008.97 1007.49 1006.08 1004.76 1003.55 1002.48 1001.55 1000.76 1000.10 999.57 999.18 998.91 998.76 998.75 998.87 999.10 999.44 999.89 1000.41 1001.00 1001.63 1002.29 1002.95 1003.61 1004.27 1004.92 1005.56 1006.20 1006.85 1007.51 1008.17 1008.85 1009.52 1010.19 1010.83 1011.43
1018.24 1017.42 1016.47 1015.38 1014.17 1012.87 1011.50 1010.09 1008.67 1007.28 1005.94 1004.68 1003.51 1002.45 1001.50 1000.69 1000.00 999.46 999.07 998.83 998.74 998.80 999.00 999.33 999.76 1000.28 1000.86 1001.48 1002.12 1002.76 1003.40 1004.03 1004.66 1005.28 1005.90 1006.53 1007.17 1007.83 1008.49 1009.16 1009.81 1010.44 1011.03
1018.54 1017.83 1017.01 1016.07 1015.03 1013.90 1012.68 1011.40 1010.09 1008.76 1007.44 1006.14 1004.90 1003.74 1002.66 1001.70 1000.87 1000.19 999.67 999.32 999.15 999.13 999.27 999.54 999.93 1000.40 1000.92 1001.49 1002.08 1002.66 1003.25 1003.83 1004.40 1004.98 1005.57 1006.18 1006.80 1007.43 1008.08 1008.73 1009.37 1009.99 1010.57
1018.78 1018.19 1017.51 1016.74 1015.88 1014.93 1013.89 1012.77 1011.59 1010.36 1009.09 1007.80 1006.53 1005.31 1004.15 1003.09 1002.15 1001.36 1000.73 1000.28 1000.01 999.91 999.97 1000.16 1000.45 1000.83 1001.27 1001.73 1002.22 1002.71 1003.20 1003.69 1004.19 1004.70 1005.23 1005.79 1006.38 1006.99 1007.61 1008.24 1008.87 1009.47 1010.04
1018.91 1018.43 1017.89 1017.28 1016.60 1015.84 1014.99 1014.05 1013.02 1011.91 1010.73 1009.52 1008.27 1007.04 1005.86 1004.76 1003.76 1002.91 1002.22 1001.69 1001.35 1001.16 1001.12 1001.21 1001.40 1001.65 1001.95 1002.28 1002.63 1002.98 1003.34 1003.70 1004.09 1004.51 1004.96 1005.44 1005.97 1006.53 1007.12 1007.72 1008.32 1008.89 1009.44
1018.91 1018.52 1018.10 1017.64 1017.12 1016.54 1015.87 1015.11 1014.26 1013.30 1012.26 1011.16 1010.00 1008.84 1007.70 1006.62 1005.64 1004.78 1004.06 1003.50 1003.10 1002.85 1002.72 1002.70 1002.76 1002.88 1003.02 1003.19 1003.37 1003.55 1003.75 1003.96 1004.21 1004.50 1004.84 1005.24 1005.68 1006.18 1006.70 1007.25 1007.80 1008.33 1008.85
1018.78 1018.45 1018.13 1017.79 1017.42 1017.00 1016.51 1015.93 1015.25 1014.48 1013.61 1012.65 1011.64 1010.60 1009.57 1008.58 1007.67 1006.86 1006.18 1005.62 1005.20 1004.90 1004.70 1004.58 1004.52 1004.49 1004.47 1004.47 1004.47 1004.47 1004.49 1004.54 1004.64 1004.78 1004.99 1005.28 1005.62 1006.02 1006.46 1006.93 1007.40 1007.88 1008.33
1018.54 1018.27 1018.02 1017.78 1017.52 1017.24 1016.91 1016.50 1016.01 1015.42 1014.74 1013.98 1013.15 1012.28 1011.41 1010.56 1009.77 1009.06 1008.45 1007.93 1007.52 1007.20 1006.95 1006.74 1006.57 1006.41 1006.25 1006.08 1005.91 1005.74 1005.59 1005.48 1005.41 1005.41 1005.49 1005.64 1005.86 1006.14 1006.48 1006.84 1007.22 1007.60 1007.97
1018.27 1018.03 1017.83 1017.66 1017.50 1017.33 1017.13 1016.88 1016.56 1016.16 1015.67 1015.11 1014.48 1013.81 1013.13 1012.45 1011.82 1011.23 1010.72 1010.27 1009.90 1009.57 1009.29 1009.03 1008.77 1008.50 1008.22 1007.92 1007.60 1007.29 1006.99 1006.73 1006.52 1006.38 1006.32 1006.34 1006.43 1006.58 1006.79 1007.03 1007.29 1007.56 1007.82
1018.02 1017.80 1017.64 1017.52 1017.42 1017.34 1017.25 1017.12 1016.95 1016.71 1016.41 1016.04 1015.61 1015.14 1014.64 1014.15 1013.67 1013.23 1012.82 1012.46 1012.13 1011.83 1011.54 1011.24 1010.93 1010.59 1010.22 1009.83 1009.41 1008.99 1008.58 1008.21 1007.88 1007.62 1007.44 1007.33 1007.29 1007.31 1007.39 1007.49 1007.62 1007.76 1007.89
1017.82 1017.63 1017.49 1017.39 1017.34 1017.32 1017.30 1017.27 1017.21 1017.11 1016.96 1016.75 1016.49 1016.19 1015.87 1015.54 1015.20 1014.89 1014.59 1014.30 1014.03 1013.76 1013.48 1013.18 1012.85 1012.48 1012.07 1011.62 1011.15 1010.67 1010.20 1009.75 1009.35 1009.00 1008.72 1008.50 1008.35 1008.25 1008.19 1008.17 1008.16 1008.16 1008.15
1017.69 1017.52 1017.39 1017.31 1017.28 1017.28 1017.30 1017.33 1017.34 1017.33 1017.28 1017.19 1017.06 1016.90 1016.71 1016.50 1016.29 1016.07 1015.86 1015.65 1015.43 1015.20 1014.96 1014.67 1014.35 1013.99 1013.58 1013.13 1012.66 1012.16 1011.67 1011.20 1010.76 1010.36 1010.02 1009.72 1009.48 1009.28 1009.11 1008.96 1008.83 1008.69 1008.56
1017.58 1017.42 1017.30 1017.23 1017.20 1017.20 1017.23 1017.28 1017.32 1017.35 1017.36 1017.34 1017.29 1017.21 1017.11 1016.99 1016.86 1016.72 1016.58 1016.43 1016.26 1016.08 1015.87 1015.63 1015.34 1015.02 1014.65 1014.24 1013.80 1013.35 1012.88 1012.43 1011.99 1011.58 1011.20 1010.86 1010.56 1010.28 1010.02 1009.78 1009.54 1009.30 1009.06
1017.43 1017.29 1017.18 1017.10 1017.06 1017.05 1017.06 1017.09 1017.13 1017.16 1017.18 1017.19 1017.17 1017.14 1017.08 1017.02 1016.94 1016.85 1016.76 1016.65 1016.53 1016.40 1016.24 1016.05 1015.82 1015.56 1015.26 1014.92 1014.56 1014.17 1013.76 1013.36 1012.95 1012.56 1012.19 1011.84 1011.50 1011.18 1010.87 1010.56 1010.25 1009.93 1009.60
1017.16 1017.06 1016.96 1016.88 1016.81 1016.78 1016.76 1016.75 1016.76 1016.77 1016.77 1016.77 1016.76 1016.73 1016.70 1016.66 1016.61 1016.55 1016.50 1016.43 1016.35 1016.27 1016.16 1016.03 1015.88 1015.70 1015.48 1015.23 1014.96 1014.65 1014.33 1013.99 1013.65 1013.30 1012.96 1012.62 1012.28 1011.95 1011.61 1011.27 1010.91 1010.54 1010.16
Thickness
5750 5748 5745 5743 5740 5737 5734 5732 5730 5727 5726 5723 5722 5720 5718 5716 5714 5712 5710 5708 5706 5705 5704 5703 5702 5702 5700 5700 5699 5697 5695 5692 5686 5685 5687 5687 5687 5687 5686 5685 5684 5684 5683
5746 5743 5741 5738 5735 5732 5730 5728 5727 5724 5722 5720 5718 5716 5715 5713 5711 5709 5707 5705 5702 5700 5700 5699 5698 5698 5697 5695 5695 5694 5692 5690 5686 5682 5681 5681 5681 5682 5681 5680 5680 5679 5678
5741 5738 5735 5733 5730 5727 5726 5725 5723 5721 5718 5717 5714 5712 5711 5709 5707 5705 5703 5701 5699 5698 5697 5695 5694 5694 5692 5691 5691 5690 5688 5688 5684 5680 5677 5676 5676 5676 5675 5675 5674 5673 5673
5736 5733 5730 5727 5725 5723 5722 5720 5718 5717 5714 5712 5711 5709 5707 5705 5703 5701 5699 5697 5695 5694 5694 5693 5692 5690 5689 5688 5687 5685 5684 5682 5679 5676 5673 5671 5670 5670 5669 5667 5666 5666 5667
5731 5728 5725 5723 5722 5720 5718 5716 5714 5712 5711 5709 5706 5704 5702 5700 5699 5697 5695 5693 5691 5690 5689 5689 5689 5688 5688 5686 5685 5682 5681 5678 5674 5671 5668 5666 5664 5663 5662 5662 5660 5659 5660
5726 5723 5721 5719 5717 5715 5713 5712 5710 5707 5706 5704 5701 5699 5697 5696 5694 5693 5691 5689 5687 5686 5685 5685 5685 5685 5685 5684 5683 5681 5680 5676 5671 5668 5665 5662 5661 5660 5659 5658 5654 5652 5651
5721 5719 5717 5715 5712 5710 5710 5707 5705 5703 5701 5699 5696 5693 5691 5690 5689 5688 5687 5685 5683 5682 5681 5680 5681 5681 5680 5679 5678 5677 5676 5675 5673 5669 5664 5662 5660 5659 5656 5653 5650 5647 5647
5716 5714 5712 5710 5707 5705 5704 5702 5700 5698 5696 5694 5691 5689 5687 5686 5685 5683 5682 5680 5679 5678 5677 5677 5676 5675 5675 5674 5673 5671 5670 5670 5669 5667 5664 5662 5660 5657 5654 5651 5647 5644 5643
5710 5708 5707 5705 5702 5700 5698 5697 5695 5694 5691 5689 5688 5685 5683 5681 5680 5679 5677 5675 5673 5672 5673 5673 5672 5671 5671 5670 5668 5665 5664 5664 5665 5663 5661 5659 5656 5653 5650 5646 5641 5637 5634
5704 5704 5702 5701 5698 5696 5694 5692 5691 5689 5687 5685 5683 5681 5679 5677 5676 5674 5673 5670 5668 5667 5667 5667 5667 5666 5665 5665 5662 5660 5658 5657 5657 5656 5654 5652 5650 5647 5645 5641 5637 5632 5628
5700 5699 5697 5696 5694 5692 5690 5688 5686 5684 5681 5679 5678 5676 5674 5673 5672 5670 5668 5666 5664 5662 5661 5661 5662 5662 5660 5659 5658 5656 5654 5653 5650 5648 5646 5644 5643 5641 5639 5636 5633 5630 5625
5694 5693 5691 5689 5689 5688 5684 5682 5680 5678 5675 5673 5672 5670 5668 5668 5667 5665 5664 5662 5661 5658 5656 5656 5657 5657 5655 5654 5652 5651 5649 5647 5644 5641 5639 5637 5635 5634 5633 5631 5629 5626 5624
5686 5685 5684 5684 5682 5681 5679 5676 5674 5672 5670 5668 5666 5664 5662 5662 5662 5661 5659 5658 5656 5654 5653 5653 5652 5651 5649 5647 5646 5645 5642 5639 5636 5634 5632 5630 5630 5629 5627 5625 5623 5621 5619
5679 5678 5677 5676 5675 5674 5673 5672 5669 5667 5665 5663 5661 5659 5658 5656 5655 5655 5653 5652 5650 5648 5647 5646 5645 5644 5642 5641 5639 5637 5635 5633 5630 5628 5626 5625 5624 5622 5620 5618 5615 5612 5610
5671 5670 5669 5669 5668 5667 5666 5665 5664 5663 5662 5660 5658 5656 5654 5652 5652 5651 5649 5647 5645 5643 5640 5637 5635 5633 5632 5631 5630 5629 5628 5626 5624 5622 5620 5618 5616 5614 5612 5611 5608 5605 5602
5663 5662 5662 5661 5661 5660 5659 5657 5657 5657 5657 5656 5655 5654 5652 5650 5648 5646 5644 5642 5640 5637 5633 5630 5627 5626 5625 5624 5622 5621 5620 5619 5618 5616 5614 5612 5610 5608 5606 5604 5602 5599 5597
5657 5656 5655 5654 5654 5653 5653 5651 5649 5649 5650 5650 5650 5648 5647 5645 5643 5640 5638 5635 5633 5630 5626 5624 5622 5620 5619 5618 5616 5614 5613 5612 5611 5609 5607 5606 5604 5602 5600 5598 5596 5593 5591
5652 5651 5649 5648 5647 5647 5646 5645 5644 5643 5642 5642 5642 5641 5640 5638 5636 5634 5631 5628 5625 5623 5620 5618 5616 5615 5613 5611 5609 5607 5606 5605 5603 5601 5600 5599 5598 5596 5593 5591 5590 5588 5586
5645 5644 5644 5642 5641 5641 5641 5640 5639 5638 5637 5636 5635 5634 5633 5631 5629 5627 5624 5622 5619 5617 5614 5612 5610 5609 5606 5604 5602 5600 5599 5597 5596 5594 5593 5592 5591 5589 5587 5586 5585 5583 5581
5639 5639 5639 5637 5636 5635 5635 5634 5634 5633 5632 5630 5628 5627 5625 5623 5621 5618 5616 5615 5613 5611 5608 5606 5604 5602 5599 5597 5595 5593 5591 5589 5588 5587 5586 5585 5584 5583 5581 5581 5580 5578 5576
5633 5633 5633 5632 5631 5630 5629 5629 5629 5627 5626 5624 5623 5623 5621 5618 5616 5613 5611 5609 5607 5605 5602 5599 5597 5594 5592 5590 5588 5587 5585 5583 5582 5581 5580 5579 5578 5577 5576 5575 5574 5573 5571
5627 5626 5625 5625 5625 5624 5624 5623 5622 5621 5620 5618 5617 5615 5613 5611 5608 5606 5604 5602 5600 5597 5595 5592 5589 5587 5585 5583 5581 5580 5578 5577 5576 5576 5575 5573 5572 5571 5570 5569 5568 5567 5565
5619 5619 5619 5618 5618 5618 5617 5616 5615 5614 5613 5611 5610 5607 5604 5602 5600 5598 5596 5594 5592 5589 5587 5584 5581 5579 5578 5576 5575 5574 5572 5571 5571 5571 5569 5568 5567 5565 5564 5563 5562 5561 5560
5612 5612 5612 5611 5610 5610 5609 5609 5608 5607 5606 5604 5602 5600 5597 5594 5592 5590 5588 5586 5583 5581 5579 5577 5575 5573 5572 5570 5569 5568 5567 5566 5566 5565 5564 5563 5561 5560 5558 5557 5556 5556 5554
5606 5605 5605 5604 5603 5602 5601 5601 5600 5599 5598 5596 5594 5592 5590 5587 5585 5582 5580 5578 5576 5574 5572 5570 5568 5567 5566 5565 5564 5563 5562 5561 5560 5559 5558 5557 5556 5555 5553 5552 5550 5549 5548
5599 5598 5597 5596 5595 5595 5594 5593 5592 5591 5590 5589 5587 5585 5583 5580 5578 5576 5574 5572 5569 5567 5565 5564 5562 5561 5560 5559 5558 5558 5557 5556 5555 5554 5553 5551 5550 5549 5547 5546 5545 5543 5542